Location: Winnipauk Village
(41.1295°N, 73.4171°W)
Time: 15:02:31
(UTC+00:00)

Hubble Space Telescope - Pass Details

Date: 29 July 2021
Orbit: 535 x 539 km, 28.5° (Epoch: 21 September)

Event Time Altitude Azimuth Distance (km) Brightness Sun altitude
Rises 00:41:58 0° 240° (WSW) 2,668 4.8 -5.5°
Reaches altitude 10° 00:45:10 10° 214° (SW) 1,776 3.5 -6.0°
Maximum altitude 00:47:17 14° 183° (S) 1,551 2.8 -6.3°
Drops below altitude 10° 00:49:23 10° 152° (SSE) 1,775 2.9 -6.7°
Enters shadow 00:50:21 - 141° (SE) 1,996 3.1 -6.8°
